Retour au catalogue

FENGYUN 1C DEB

ActifPO
NORAD 37476·DEBRIS·🇨🇳 China

Lancé May 10, 1999 depuis Taiyuan Satellite Launch Center

Loading…

Prochains Passages (prochaines 24 heures)

TLE

VieillissantSource: Space-Track

Époque: Sep 9, 2026, 17:03 UTC

1 37476U 99025EJW 26252.71050988  .00000533  00000-0  14328-2 0  9998
2 37476  98.9468 196.7121 1075798  58.7928 311.4091 11.91550176706701

Suivez FENGYUN 1C DEB en temps réel avec AllMySat

Download on the App Store